Little Rock AFB, AR

4:04 AM CST on December 07, 2019 (GMT -0600)
Little Rock Air Force Base

Weather History for KLRF - November, 2019

Change the Weather History Date:

Thursday, November 14, 2019

  Actual Average Record
Temperature  
Mean Temperature 40 °F -  
Max Temperature 56 °F 62 °F 87 °F (1999)
Min Temperature 25 °F 39 °F 19 °F (2014)
Degree Days  
Heating Degree Days 24    
Moisture  
Dew Point 27 °F    
Average Humidity 68    
Maximum Humidity 94    
Minimum Humidity 29    
Precipitation  
Precipitation 0.00 in - - ()
Sea Level Pressure  
Sea Level Pressure 30.30 in    
Wind  
Wind Speed 1 mph (North)    
Max Wind Speed 6 mph    
Max Gust Speed -    
Visibility 9 miles    
Events      
Averages and records for this station are not official NWS values.
T = Trace of Precipitation, MM = Missing Value Source: NWS Daily Summary

Daily Weather History Graph

Daily Weather History Graph

Search for Another Location

Airport or City:

Astronomy

Nov. 14, 2019 Rise Set
Actual Time 6:41 AM CST 5:03 PM CST
Civil Twilight 6:14 AM CST 5:30 PM CST
Nautical Twilight 5:44 AM CST 6:01 PM CST
Astronomical Twilight 5:14 AM CST 6:31 PM CST
Moon 6:53 PM CST (11/14) 8:35 AM CST (11/14)
Length of Visible Light 11h 15m
Length of Day
10h 22m
Waning Gibbous, 95% of the Moon is Illuminated
Nov 14
Waning Gibbous
Nov 19
Last Quarter
Nov 26
New
Dec 4
First Quarter
Dec 11
Full

Hourly Weather History & Observations

Time (CST) Temp. Windchill Dew Point Humidity Pressure Visibility Wind Dir Wind Speed Gust Speed Precip Events Conditions
12:56 AM 26.4 °F - 24.1 °F 91% 30.23 in 10.0 mi Calm Calm - N/A   Clear
1:56 AM 26.1 °F - 23.7 °F 91% 30.24 in 10.0 mi Calm Calm - N/A   Clear
2:56 AM 25.3 °F - 23.9 °F 94% 30.24 in 10.0 mi Calm Calm - N/A   Partly Cloudy
3:56 AM 27.9 °F - 26.1 °F 93% 30.24 in 10.0 mi Calm Calm - N/A   Overcast
4:56 AM 30.6 °F - 28.2 °F 91% 30.24 in 10.0 mi Calm Calm - N/A   Overcast
5:56 AM 31.8 °F - 29.3 °F 90% 30.24 in 10.0 mi Calm Calm - N/A   Overcast
6:56 AM 34.0 °F - 27.5 °F 77% 30.26 in 10.0 mi Calm Calm - N/A   Overcast
7:56 AM 35.1 °F - 27.9 °F 75% 30.29 in 10.0 mi Calm Calm - N/A   Overcast
8:56 AM 38.1 °F - 26.2 °F 62% 30.30 in 10.0 mi Calm Calm - N/A   Overcast
9:56 AM 42.3 °F 39.4 °F 24.4 °F 49% 30.31 in 10.0 mi NNW 4.6 mph - N/A   Overcast
10:56 AM 46.4 °F 45.2 °F 23.9 °F 41% 30.33 in 10.0 mi North 3.5 mph - N/A   Clear
11:56 AM 50.7 °F - 24.1 °F 35% 30.31 in 10.0 mi East 3.5 mph - N/A   Clear
12:56 PM 53.1 °F - 23.9 °F 32% 30.29 in 10.0 mi Calm Calm - N/A   Clear
1:56 PM 55.4 °F - 25.3 °F 31% 30.27 in 10.0 mi NNE 4.6 mph - N/A   Clear
2:56 PM 56.3 °F - 24.4 °F 29% 30.27 in 10.0 mi NW 3.5 mph - N/A   Clear
3:56 PM 55.9 °F - 25.7 °F 31% 30.27 in 10.0 mi NNW 5.8 mph - N/A   Clear
4:56 PM 52.9 °F - 28.0 °F 38% 30.27 in 9.0 mi North 3.5 mph - N/A   Clear
5:31 PM 46.4 °F 45.2 °F 30.2 °F 53% 30.30 in 2.8 mi East 3.5 mph - N/A   Haze
5:36 PM 44.6 °F - 28.4 °F 53% 30.30 in 7.0 mi Calm Calm - N/A   Clear
5:56 PM 43.5 °F - 30.6 °F 60% 30.31 in 7.0 mi Calm Calm - N/A   Clear
6:56 PM 38.5 °F - 32.2 °F 78% 30.33 in 7.0 mi Calm Calm - N/A   Clear
7:56 PM 35.4 °F - 30.6 °F 82% 30.35 in 7.0 mi Calm Calm - N/A   Clear
8:56 PM 34.3 °F 30.2 °F 29.7 °F 83% 30.37 in 10.0 mi SW 4.6 mph - N/A   Clear
9:16 PM 33.8 °F 30.8 °F 30.2 °F 87% 30.37 in 7.0 mi East 3.5 mph - N/A   Clear
9:21 PM 32.0 °F - 28.4 °F 87% 30.37 in 7.0 mi Calm Calm - N/A   Clear
9:56 PM 32.0 °F - 29.1 °F 89% 30.37 in 10.0 mi Calm Calm - N/A   Clear
10:56 PM 30.6 °F - 28.2 °F 91% 30.38 in 7.0 mi Calm Calm - N/A   Clear
11:56 PM 29.7 °F 24.7 °F 27.3 °F 91% 30.37 in 10.0 mi WSW 4.6 mph - N/A   Clear